CZ-6A DEB, 54555

Orbit data source: Space-Track

CZ-6A DEB, 54555 is space debris in SSO originally from a launch on Fri, 11 Nov 2022 UTC launched from the Taiyaun Space Center, China (TSC). Debris objects in space refer to the collection of defunct objects orbiting the Earth. Examples of debris include non-operational satellites, rocket bodies, and fragments generated from explosions, collisions, or faulty payload assembly.

Loading next visibility...
Identifier
54555, 2022-151LF
Orbit
SSO
Country
Flag of CNCN / PRC
Related business
Manufacturer
SAST
Mission
Spacecraft
Bus & Motor
Unknown
Mass
Unknown
Launch date (UTC)
2022-11-11 (4 years ago)
Launch vehicle
Unknown
Launch site
Taiyaun Space Center, China (TSC)
Object type
Payload
Rocket body
Debris
Shape & HBR
Unknown shape, 0.2 m
Radar Cross Section
Medium (>0.1 m² and <1 m²)

Expand to show TLE details & history
Last TLE update: 2 days ago

TLE from 2 days ago
0 CZ-6A DEB
1 54555U 22151LF  26171.30462792  .00000360  00000-0  16411-3 0  9990
2 54555  98.7226 198.0497 0041798 345.6067  14.3919 14.27214405187348
Epoch: 2026-06-20T07:18Z
TLE epoch observation values (Epoch: 2026-06-20T07:18:39.852Z)
Latitude
-0.00008°
Longitude
179.8625°
Altitude
774.917 km
Speed
7.482 km/s
True Right ascension
13h 12m 11s
True Declination
0° 00' 00"
Sunlit
Object was in daylight at epoch
Visualization orbit readout
Latitude
Unknown
Longitude
Unknown
Altitude
Unknown
Speed
Unknown
Apparent Right ascension
Unknown
Apparent Declination
Unknown
Sunlit
N/A
Visualization observer readout
Local Sidereal Time
21:24:24
Azimuth
Unknown
Elevation
Unknown
Doppler factor
Unknown
Orbital elements
Apogee altitude
828.202 km
Perigee altitude
768.211 km
Semi-major axis
7,176.344 km
Eccentricity
0.00418
Inclination
98.7226°
RAAN
198.0497°
Arg. of periapsis
345.6067°
True anomaly
14.51155°
Mean anomaly
14.3919°
Eccentric anomaly
14.45167°
Mean motion
3.57017 °/min
Orbital period
100.84 mins
BSTAR
0.00016411
Loading maneuver chart data...
Computing Atmospheric mass density...
Loading historical data...
Loading historical data...
Loading historical data...
Loading historical data...
Loading historical data...
Loading historical data...
Loading historical data...

Documentation

Showing up to 5 results
|